TimePDT,TemperatureF,Dew PointF,Humidity,Sea Level PressureIn,VisibilityMPH,Wind Direction,Wind SpeedMPH,Gust SpeedMPH,PrecipitationIn,Events,Conditions,WindDirDegrees,DateUTC
12:08 AM,55.4,50.0,82,30.03,10.0,West,6.9,-,N/A,,Mostly Cloudy,280,2013-06-16 07:08:00
12:25 AM,55.4,50.0,82,30.02,10.0,West,8.1,-,N/A,,Scattered Clouds,280,2013-06-16 07:25:00
12:54 AM,55.0,50.0,83,30.05,10.0,Calm,Calm,-,N/A,,Clear,0,2013-06-16 07:54:00
1:21 AM,55.4,50.0,82,30.02,10.0,West,4.6,-,N/A,,Mostly Cloudy,280,2013-06-16 08:21:00
1:51 AM,55.4,50.0,82,30.02,10.0,West,3.5,-,N/A,,Scattered Clouds,270,2013-06-16 08:51:00
1:54 AM,54.0,50.0,86,30.06,10.0,West,4.6,-,N/A,,Partly Cloudy,280,2013-06-16 08:54:00
2:54 AM,54.0,50.0,86,30.05,10.0,WNW,4.6,-,N/A,,Clear,300,2013-06-16 09:54:00
3:54 AM,55.0,51.1,86,30.05,10.0,Calm,Calm,-,N/A,,Scattered Clouds,0,2013-06-16 10:54:00
4:03 AM,53.6,50.0,88,30.02,10.0,Calm,Calm,-,N/A,,Mostly Cloudy,0,2013-06-16 11:03:00
4:54 AM,55.0,50.0,83,30.06,10.0,Calm,Calm,-,N/A,,Overcast,0,2013-06-16 11:54:00
5:24 AM,53.6,50.0,88,30.04,10.0,Calm,Calm,-,N/A,,Scattered Clouds,0,2013-06-16 12:24:00
5:37 AM,55.4,50.0,82,30.04,10.0,Calm,Calm,-,N/A,,Mostly Cloudy,0,2013-06-16 12:37:00
5:54 AM,54.0,50.0,86,30.07,10.0,West,6.9,-,N/A,,Mostly Cloudy,280,2013-06-16 12:54:00
6:04 AM,53.6,50.0,88,30.04,10.0,WNW,5.8,-,N/A,,Scattered Clouds,300,2013-06-16 13:04:00
6:40 AM,55.4,50.0,82,30.05,10.0,West,5.8,-,N/A,,Mostly Cloudy,280,2013-06-16 13:40:00
6:54 AM,55.0,50.0,83,30.08,10.0,West,9.2,-,N/A,,Overcast,270,2013-06-16 13:54:00
7:54 AM,55.9,51.1,84,30.10,10.0,West,8.1,-,N/A,,Mostly Cloudy,270,2013-06-16 14:54:00
8:01 AM,57.2,51.8,82,30.07,10.0,West,6.9,-,N/A,,Scattered Clouds,260,2013-06-16 15:01:00
8:17 AM,57.2,50.0,77,30.08,10.0,West,8.1,-,N/A,,Mostly Cloudy,270,2013-06-16 15:17:00
8:32 AM,57.2,51.8,82,30.08,10.0,West,8.1,-,N/A,,Scattered Clouds,270,2013-06-16 15:32:00
8:54 AM,57.0,50.0,77,30.12,10.0,West,8.1,-,N/A,,Partly Cloudy,260,2013-06-16 15:54:00
9:54 AM,61.0,51.1,70,30.12,10.0,WSW,6.9,-,N/A,,Clear,250,2013-06-16 16:54:00
10:54 AM,63.0,51.1,65,30.12,10.0,WNW,5.8,-,N/A,,Clear,300,2013-06-16 17:54:00
11:54 AM,64.0,52.0,65,30.13,10.0,WNW,9.2,-,N/A,,Clear,290,2013-06-16 18:54:00
12:54 PM,64.9,52.0,63,30.12,10.0,WNW,5.8,-,N/A,,Clear,300,2013-06-16 19:54:00
1:54 PM,68.0,53.1,59,30.12,10.0,West,9.2,-,N/A,,Clear,260,2013-06-16 20:54:00
2:54 PM,68.0,53.1,59,30.12,10.0,West,12.7,-,N/A,,Clear,270,2013-06-16 21:54:00
3:54 PM,68.0,52.0,56,30.12,10.0,West,15.0,-,N/A,,Clear,280,2013-06-16 22:54:00
4:54 PM,68.0,54.0,61,30.12,10.0,West,12.7,17.3,N/A,,Clear,280,2013-06-16 23:54:00
5:54 PM,66.0,53.1,63,30.11,10.0,WNW,13.8,-,N/A,,Clear,290,2013-06-17 00:54:00
6:54 PM,63.0,53.1,70,30.11,10.0,West,10.4,-,N/A,,Clear,270,2013-06-17 01:54:00
7:54 PM,62.1,51.1,67,30.12,10.0,West,10.4,-,N/A,,Clear,270,2013-06-17 02:54:00
8:54 PM,60.1,51.1,72,30.13,10.0,West,10.4,-,N/A,,Clear,280,2013-06-17 03:54:00
9:54 PM,57.9,51.1,78,30.13,10.0,West,3.5,-,N/A,,Clear,260,2013-06-17 04:54:00
10:54 PM,59.0,51.1,75,30.13,10.0,WSW,3.5,-,N/A,,Clear,250,2013-06-17 05:54:00
11:54 PM,57.9,51.1,78,30.13,10.0,West,6.9,-,N/A,,Clear,280,2013-06-17 06:54:00